Location: Il Ritiro
(43.4167°N, 13.1333°E)
Time: 17:00:36
(UTC+00:00)

Cosmos 1515 Rocket - Pass Details

Date: 05 July 2020
Orbit: 607 x 630 km, 82.5° (Epoch: 10 August)

Event Time Altitude Azimuth Distance (km) Brightness Sun altitude
Rises 22:36:33 0° 358° (N) 2,878 8.4 -23.4°
Reaches altitude 10° 22:38:52 10° 5° (N) 1,971 7.2 -23.5°
Maximum altitude 22:43:01 42° 77° (ENE) 879 4.3 -23.6°
Enters shadow 22:43:16 41° 87° (E) 886 4.2 -23.6°
